Wind_Speed
44 39 40 45 49 50 48 47 50 50 47 47 48 48 48 46 49 48 46 43 39 35 33 29 27 26 21 19 18 15 14 13 13 15 13 11 10 15 17 18 18 18 18
45 43 42 43 44 46 47 44 43 46 49 52 52 47 50 55 56 63 45 48 45 40 36 34 31 29 25 22 19 17 16 16 14 16 15 15 16 17 19 20 18 19 21
45 43 46 45 43 41 45 45 43 46 49 50 59 63 46 51 60 65 58 59 50 44 41 37 35 33 29 26 23 21 21 21 20 17 21 18 19 21 21 24 21 19 21
44 45 44 46 43 40 39 43 42 43 51 53 56 60 62 63 57 40 37 54 65 47 45 41 40 37 33 32 29 25 25 24 25 24 24 23 22 21 22 23 22 22 24
42 44 47 43 41 35 35 34 35 41 45 46 52 52 54 59 60 63 36 30 54 50 52 47 45 41 37 38 35 31 29 29 29 28 26 28 26 25 26 25 23 25 33
41 40 38 31 35 35 31 33 36 41 42 41 44 44 48 50 51 51 50 57 28 35 50 54 48 47 41 43 40 32 33 31 30 31 31 29 30 29 30 31 30 28 31
40 36 32 27 29 30 30 29 30 35 38 38 37 39 38 38 36 35 30 33 37 30 43 48 54 64 42 42 41 36 34 33 32 32 34 33 34 35 31 33 36 34 28
33 29 27 25 25 29 31 30 30 32 31 32 32 33 33 33 33 33 33 30 29 28 24 33 37 52 53 47 48 38 33 34 32 32 33 31 34 35 33 35 38 37 32
25 24 23 24 26 26 29 32 32 32 31 27 33 31 31 31 33 33 36 34 30 28 33 33 33 48 50 48 32 30 33 34 33 32 34 35 34 34 35 39 39 37 29
11 12 15 16 18 14 14 21 32 33 31 30 28 27 22 23 28 31 34 33 33 31 32 33 32 39 36 36 33 32 34 35 35 36 36 37 34 36 41 38 38 39 33
15 8 9 7 9 11 8 13 10 19 26 25 22 22 22 26 28 29 32 32 30 31 32 31 31 30 34 33 33 36 36 36 36 37 39 37 38 38 38 40 40 37 34
18 15 12 8 10 9 8 10 8 16 17 22 24 29 24 22 20 23 25 27 27 25 26 25 27 31 34 38 38 38 33 34 35 34 38 40 39 39 41 37 35 33 28
14 14 13 14 6 1 9 10 8 25 26 23 19 28 29 24 19 22 23 23 21 21 21 24 24 23 23 28 25 28 30 29 36 35 30 29 32 33 30 33 31 30 27
13 10 8 7 6 3 5 5 7 8 10 14 15 8 19 19 19 20 18 16 16 21 20 19 28 26 21 20 17 24 32 26 23 19 17 18 13 17 20 19 15 10 16
15 12 4 3 6 7 12 11 10 13 10 6 7 8 5 8 11 13 13 10 11 10 13 10 9 11 13 17 17 21 17 14 22 18 13 18 21 22 24 25 26 25 24
22 11 11 7 6 6 8 11 11 9 5 4 1 3 3 7 9 11 11 16 19 18 18 19 19 21 23 25 23 23 19 20 22 22 23 25 24 25 28 26 25 25 24
20 22 16 11 11 10 6 9 10 11 9 9 11 15 14 13 14 14 13 13 13 15 15 15 17 18 21 24 22 18 18 17 17 17 18 20 22 22 22 22 23 22 22
17 13 13 11 12 10 8 9 9 9 7 8 8 7 8 9 9 10 10 11 12 12 13 13 13 15 15 13 14 13 12 14 15 15 17 19 21 23 24 25 27 26 25
7 6 2 3 7 9 8 7 8 8 8 6 6 6 6 7 7 8 9 9 10 10 10 10 11 13 13 15 16 17 18 19 19 21 22 24 25 27 28 29 30 31 31
7 7 7 8 7 7 7 6 6 6 6 7 7 9 9 10 11 11 12 13 14 14 15 16 17 19 20 21 23 25 26 26 26 27 27 28 29 31 33 35 36 37 38
10 11 10 9 8 7 6 7 9 9 9 10 10 12 14 14 15 17 19 18 18 20 20 22 23 24 25 26 28 29 29 30 30 30 31 32 34 35 35 38 39 41 41
9 12 14 13 11 10 10 10 11 11 13 13 15 16 17 18 21 21 21 21 23 24 24 26 27 28 28 30 29 30 32 33 34 34 36 37 38 40 41 42 43 45 46
8 11 13 12 13 13 13 15 16 16 18 16 16 19 21 22 23 25 27 28 28 30 30 31 32 32 33 33 35 36 37 39 40 42 44 44 45 46 48 49 49 50 52
11 15 17 14 15 16 16 18 20 22 23 22 21 25 28 30 30 30 31 33 35 36 37 37 38 39 41 43 44 45 44 46 46 47 48 48 49 52 54 54 55 55 55
15 18 20 20 21 22 23 24 25 27 29 30 29 29 29 32 35 36 37 37 39 41 43 46 47 47 48 49 50 49 49 48 49 49 51 52 53 55 56 57 58 59 60
21 23 24 24 25 27 26 27 30 30 30 33 35 35 35 36 38 37 40 43 45 46 48 50 52 53 53 52 50 49 50 53 55 56 56 57 58 58 59 61 64 64 64
Wind_Direction
288 283 276 269 270 265 264 265 261 255 247 248 250 249 257 250 251 253 250 248 244 244 246 241 241 233 223 223 232 232 230 230 245 260 273 286 273 276 282 287 289 293 294
288 285 280 269 268 272 267 261 257 255 247 241 242 245 249 246 254 241 232 236 244 236 237 242 237 237 229 221 215 223 234 234 231 250 262 276 291 295 296 296 294 296 299
286 282 280 276 270 270 263 264 257 248 241 238 239 241 243 245 241 247 238 246 236 241 231 231 233 233 231 229 221 219 229 240 242 245 260 265 275 284 295 300 304 303 298
285 281 281 279 270 265 264 265 258 248 241 237 239 241 247 256 260 249 260 240 236 227 235 229 233 234 232 233 234 230 238 246 252 257 258 264 268 275 286 287 290 299 296
289 284 284 281 264 262 260 258 252 250 248 246 244 246 248 253 261 269 260 243 227 229 226 226 230 233 235 238 237 244 241 247 254 254 251 260 269 276 280 280 281 294 304
285 291 288 275 258 258 252 252 248 247 250 253 252 249 252 256 259 262 273 266 250 233 226 227 230 234 235 242 241 238 248 253 254 254 258 263 266 272 280 280 281 285 299
292 294 282 282 264 253 252 255 249 248 253 257 255 254 253 250 251 250 242 254 263 254 229 225 243 238 228 236 239 241 243 251 256 259 263 266 270 275 276 274 276 283 292
300 286 282 278 269 256 252 249 247 246 250 251 249 252 250 249 247 244 242 234 238 253 253 243 263 237 232 226 234 243 247 256 261 258 263 264 273 277 278 266 271 273 281
301 299 293 281 274 266 256 248 246 245 246 250 248 246 241 245 248 244 243 243 237 232 232 237 236 226 244 232 238 243 252 256 262 265 268 268 273 276 266 270 269 262 271
295 332 334 317 301 274 274 255 250 252 243 244 242 247 244 249 245 241 240 239 241 240 237 237 237 238 241 239 253 259 257 260 263 266 267 268 268 268 265 261 260 271 262
273 302 323 0 23 314 235 243 239 237 240 237 224 239 240 244 242 238 238 240 244 243 237 245 251 248 251 253 254 257 257 260 258 264 266 257 262 258 262 266 267 262 264
297 287 293 314 37 47 221 231 276 242 204 233 214 240 246 249 244 247 244 240 242 241 242 245 249 247 248 247 242 246 244 247 247 254 256 262 254 265 266 267 266 261 254
283 277 287 275 215 334 108 175 161 111 124 141 164 176 217 227 243 227 233 229 235 244 236 231 238 237 237 240 243 244 238 238 247 252 257 260 261 260 259 260 258 256 250
270 284 309 312 268 221 14 266 258 115 121 130 162 174 174 184 193 191 196 201 205 190 194 212 220 224 225 218 226 227 228 231 234 242 248 240 245 256 247 243 241 231 240
236 262 265 346 331 338 332 352 4 5 34 43 163 116 118 231 218 193 197 207 222 199 220 220 213 217 227 235 235 245 253 252 251 268 252 242 241 242 245 248 250 250 245
235 225 268 245 279 287 297 308 323 322 304 254 180 128 182 179 236 253 236 228 231 232 237 241 235 233 240 245 245 251 259 252 249 243 240 236 242 248 247 252 257 258 258
240 251 247 237 254 274 300 292 287 287 281 264 242 231 229 221 229 231 236 244 237 236 234 233 238 239 242 246 249 247 244 240 241 242 245 247 249 251 252 255 256 256 255
237 217 234 243 254 265 269 269 271 264 260 254 250 237 233 233 230 224 216 218 219 222 222 224 225 229 233 234 239 237 242 243 244 249 251 252 253 257 258 260 263 263 263
340 275 217 249 270 274 264 256 248 242 242 231 224 225 222 223 227 233 232 231 230 234 235 243 247 252 252 253 254 254 252 256 258 260 263 264 262 261 262 262 262 262 264
275 281 250 243 243 247 260 266 266 255 232 230 232 235 235 239 243 252 258 258 260 264 266 265 262 263 263 259 260 263 266 269 269 271 272 272 270 267 267 266 266 266 265
263 275 283 276 269 268 261 242 252 258 261 255 245 250 265 268 262 260 262 267 268 267 269 268 266 264 264 266 270 271 272 274 275 275 274 274 273 271 270 272 272 271 270
253 256 260 266 272 276 277 279 276 272 270 270 271 272 269 268 270 271 272 271 271 272 275 277 279 280 279 278 275 274 275 274 274 273 272 272 272 272 273 272 270 270 271
257 266 268 277 279 284 284 288 287 284 277 281 288 287 285 283 281 283 284 284 284 282 279 278 278 276 274 273 274 275 276 277 277 276 274 274 273 272 272 272 271 271 271
265 270 276 281 279 277 278 279 282 283 284 288 288 287 284 285 286 285 284 284 284 282 281 279 279 279 279 279 278 278 277 277 276 275 275 275 276 276 275 275 275 274 273
268 272 274 279 284 283 282 286 288 288 288 287 286 285 282 285 288 287 285 285 286 286 286 286 283 283 283 283 282 283 283 282 278 276 276 276 277 277 277 277 276 275 276
270 272 275 281 280 281 288 287 284 288 291 289 288 289 287 285 283 283 285 286 285 285 285 284 283 281 280 280 280 279 279 279 279 279 279 279 279 279 279 280 280 280 279
Height
5825 5824 5821 5816 5812 5811 5813 5813 5816 5818 5824 5825 5828 5829 5825 5834 5834 5838 5843 5848 5851 5858 5862 5864 5867 5867 5868 5869 5873 5876 5877 5879 5881 5881 5882 5884 5886 5886 5884 5883 5883 5883 5882
5809 5807 5804 5802 5800 5797 5798 5800 5800 5803 5806 5810 5812 5816 5819 5824 5821 5791 5814 5829 5841 5843 5850 5858 5858 5863 5865 5864 5864 5869 5873 5874 5875 5875 5875 5875 5877 5878 5878 5879 5880 5879 5879
5795 5791 5788 5786 5785 5784 5783 5784 5786 5787 5790 5793 5795 5797 5800 5803 5803 5787 5793 5821 5826 5836 5838 5845 5852 5853 5858 5861 5860 5861 5864 5869 5871 5870 5871 5871 5872 5874 5874 5873 5873 5873 5873
5780 5776 5772 5770 5769 5770 5769 5770 5770 5773 5774 5777 5780 5785 5788 5778 5775 5785 5790 5798 5809 5819 5828 5835 5843 5847 5849 5852 5855 5854 5855 5858 5863 5866 5866 5865 5866 5866 5869 5868 5868 5867 5867
5765 5760 5756 5752 5754 5755 5756 5757 5757 5758 5761 5766 5769 5774 5780 5782 5783 5777 5788 5793 5796 5804 5813 5822 5831 5837 5840 5842 5843 5846 5846 5849 5853 5857 5859 5859 5859 5859 5860 5861 5862 5862 5859
5751 5748 5743 5739 5739 5741 5744 5745 5745 5747 5751 5754 5759 5765 5769 5774 5778 5783 5782 5786 5786 5795 5802 5811 5821 5826 5829 5835 5836 5834 5837 5839 5842 5846 5848 5851 5850 5850 5851 5852 5853 5853 5853
5741 5736 5733 5730 5728 5730 5732 5734 5734 5737 5740 5745 5750 5756 5759 5763 5768 5773 5776 5775 5785 5790 5793 5801 5808 5812 5818 5824 5828 5825 5827 5830 5832 5835 5838 5840 5840 5840 5841 5843 5844 5843 5843
5730 5726 5723 5721 5719 5719 5721 5723 5725 5726 5730 5733 5740 5746 5749 5754 5758 5762 5764 5769 5774 5781 5785 5790 5787 5795 5806 5811 5813 5813 5815 5819 5823 5825 5827 5830 5831 5830 5831 5831 5831 5834 5835
5724 5718 5713 5711 5710 5711 5712 5714 5714 5716 5720 5723 5729 5734 5739 5743 5749 5751 5754 5757 5760 5766 5774 5779 5781 5788 5794 5796 5798 5801 5805 5809 5812 5813 5815 5817 5818 5819 5819 5819 5819 5822 5825
5719 5714 5709 5706 5702 5703 5703 5702 5704 5709 5713 5716 5722 5725 5731 5735 5740 5743 5748 5751 5754 5758 5763 5768 5772 5777 5779 5783 5786 5790 5794 5798 5800 5803 5804 5805 5806 5806 5807 5808 5809 5811 5812
5715 5712 5707 5705 5701 5699 5697 5697 5700 5702 5706 5711 5717 5721 5723 5729 5733 5736 5738 5746 5748 5750 5755 5760 5763 5765 5770 5774 5776 5780 5784 5786 5789 5791 5793 5794 5795 5796 5796 5796 5796 5798 5799
5711 5710 5706 5704 5702 5700 5698 5699 5701 5701 5700 5700 5711 5716 5719 5723 5727 5729 5733 5736 5740 5743 5747 5750 5751 5755 5759 5764 5765 5769 5773 5776 5779 5780 5782 5783 5784 5784 5784 5784 5785 5786 5788
5708 5707 5705 5704 5703 5701 5699 5699 5698 5697 5699 5702 5706 5710 5714 5718 5721 5724 5728 5731 5733 5738 5740 5743 5746 5747 5749 5753 5754 5756 5761 5766 5768 5769 5771 5771 5772 5773 5775 5775 5774 5775 5778
5706 5704 5702 5701 5700 5698 5700 5700 5700 5704 5700 5702 5706 5709 5713 5715 5717 5720 5723 5725 5727 5731 5733 5735 5737 5740 5742 5746 5748 5750 5753 5754 5757 5760 5762 5763 5764 5766 5767 5768 5767 5768 5768
5704 5703 5703 5702 5701 5701 5701 5702 5703 5704 5705 5708 5709 5711 5712 5714 5715 5716 5719 5720 5722 5725 5726 5728 5731 5733 5735 5739 5741 5743 5743 5747 5749 5750 5753 5754 5756 5758 5761 5761 5760 5761 5762
5700 5701 5702 5703 5703 5704 5704 5703 5704 5705 5706 5708 5709 5710 5712 5714 5716 5717 5718 5720 5721 5722 5723 5724 5726 5728 5731 5734 5736 5737 5739 5740 5742 5743 5744 5745 5747 5749 5751 5751 5752 5752 5752
5697 5697 5699 5701 5703 5704 5706 5705 5705 5704 5705 5707 5708 5709 5710 5711 5712 5714 5715 5716 5717 5719 5720 5720 5722 5723 5726 5728 5730 5730 5732 5733 5734 5736 5737 5738 5740 5742 5742 5743 5744 5744 5744
5695 5696 5696 5698 5700 5701 5703 5703 5703 5702 5703 5704 5705 5705 5707 5708 5709 5710 5710 5712 5713 5715 5716 5717 5718 5719 5720 5721 5723 5725 5725 5725 5726 5728 5729 5731 5732 5733 5734 5735 5735 5736 5736
5697 5695 5696 5698 5698 5698 5698 5699 5701 5701 5701 5701 5702 5703 5703 5705 5705 5706 5707 5708 5709 5710 5711 5712 5713 5714 5715 5716 5717 5718 5719 5719 5720 5721 5722 5723 5723 5724 5725 5725 5725 5726 5726
5694 5695 5696 5698 5697 5696 5696 5697 5698 5698 5699 5699 5700 5701 5702 5701 5702 5703 5704 5704 5705 5706 5707 5709 5709 5708 5709 5709 5710 5710 5710 5711 5711 5711 5712 5713 5714 5714 5714 5715 5715 5716 5715
5694 5694 5694 5695 5695 5694 5695 5694 5694 5694 5694 5695 5697 5697 5698 5699 5699 5698 5697 5698 5699 5698 5698 5700 5700 5700 5700 5701 5700 5700 5700 5700 5700 5700 5701 5701 5701 5702 5703 5702 5701 5701 5702
5692 5692 5692 5691 5692 5691 5691 5689 5690 5691 5691 5691 5691 5691 5691 5692 5690 5691 5690 5691 5691 5691 5691 5690 5690 5689 5688 5689 5688 5688 5688 5687 5687 5687 5687 5686 5686 5686 5686 5686 5686 5686 5685
5690 5690 5690 5690 5690 5690 5689 5688 5687 5686 5685 5685 5687 5686 5685 5684 5682 5681 5680 5679 5679 5677 5677 5676 5676 5677 5677 5677 5677 5676 5675 5674 5673 5672 5671 5671 5670 5669 5669 5670 5669 5668 5667
5687 5686 5687 5687 5686 5685 5684 5683 5681 5679 5679 5679 5680 5677 5676 5675 5674 5673 5672 5669 5667 5666 5665 5666 5665 5665 5664 5663 5662 5661 5661 5659 5657 5656 5654 5654 5653 5652 5651 5650 5649 5649 5649
5684 5683 5681 5682 5681 5678 5676 5675 5674 5673 5671 5670 5670 5670 5668 5665 5662 5660 5659 5659 5656 5654 5651 5649 5649 5650 5649 5647 5646 5644 5642 5640 5639 5638 5637 5636 5635 5633 5632 5631 5630 5629 5628
5678 5677 5675 5674 5672 5670 5669 5667 5665 5664 5663 5660 5659 5657 5656 5654 5652 5651 5648 5645 5643 5641 5638 5636 5634 5634 5633 5632 5630 5628 5625 5622 5620 5619 5619 5618 5617 5615 5612 5611 5608 5607 5606